KN4URY Weather Reports


Display with metric or nautical units.
time (UTC)temp
F
wind
direction
speed
MPH
gust
MPH
rain 1hr
in
rain 24hr
in
rain mn
in
humidity
%
barometer
mb
20260901142843 83 341 1.0 5.0 0.00 0.00 0.00 82 1018.9
20260901142324 83 341 1.0 5.0 0.00 0.00 0.00 82 1019.0
20260901141822 83 341 1.0 4.0 0.00 0.00 0.00 82 1018.9
20260901141321 82 341 1.0 7.0 0.00 0.00 0.00 82 1018.9
20260901140818 82 341 2.0 7.0 0.00 0.00 0.00 82 1018.9
20260901140318 81 341 1.0 5.0 0.00 0.00 0.00 83 1019.0
20260901135819 81 341 2.0 5.0 0.00 0.00 0.00 84 1018.9
20260901135321 81 341 2.0 5.0 0.00 0.00 0.00 84 1019.0
20260901134821 81 341 1.0 3.0 0.00 0.00 0.00 85 1018.9
20260901134321 80 341 1.0 4.0 0.00 0.00 0.00 85 1018.9
20260901133821 80 341 0.0 7.0 0.00 0.00 0.00 86 1018.9
20260901133321 80 341 3.0 7.0 0.00 0.00 0.00 86 1019.0
20260901132847 80 341 1.0 3.0 0.00 0.00 0.00 87 1018.9
20260901132328 79 341 1.0 3.0 0.00 0.00 0.00 87 1018.9
20260901131828 79 341 2.0 3.0 0.00 0.00 0.00 87 1018.9
20260901131328 79 341 1.0 3.0 0.00 0.00 0.00 87 1018.9
20260901130824 78 341 1.0 3.0 0.00 0.00 0.00 87 1018.9
20260901130325 78 341 1.0 3.0 0.00 0.00 0.00 88 1018.9
20260901125825 78 341 1.0 4.0 0.00 0.00 0.00 88 1018.9
20260901125324 77 341 1.0 4.0 0.00 0.00 0.00 89 1019.0
20260901124824 77 341 1.0 3.0 0.00 0.00 0.00 91 1019.0
20260901124326 76 341 0.0 4.0 0.00 0.00 0.00 92 1019.0
20260901123825 76 341 1.0 4.0 0.00 0.00 0.00 92 1018.9
20260901123326 76 341 0.0 2.0 0.00 0.00 0.00 93 1019.0
20260901122826 75 341 0.0 2.0 0.00 0.00 0.00 94 1018.9
20260901122327 75 341 0.0 3.0 0.00 0.00 0.00 95 1019.0
20260901121824 74 341 0.0 2.0 0.00 0.00 0.00 96 1018.9
20260901121325 74 341 0.0 2.0 0.00 0.00 0.00 98 1018.9
20260901120826 73 341 0.0 1.0 0.00 0.00 0.00 99 1018.9
20260901120321 73 341 0.0 2.0 0.00 0.00 0.00 99 1018.8
20260901115828 72 341 0.0 1.0 0.00 0.00 0.00 99 1018.6
20260901115354 72 341 0.0 0.0 0.00 0.00 0.00 99 1018.7
20260901114833 72 341 0.0 0.0 0.00 0.00 0.00 99 1018.6
20260901114312 71 341 0.0 0.0 0.00 0.00 0.00 99 1018.6
20260901113812 71 341 0.0 0.0 0.00 0.00 0.00 99 1018.5
20260901113314 71 341 0.0 0.0 0.00 0.00 0.00 99 1018.4
20260901112813 70 341 0.0 0.0 0.00 0.00 0.00 98 1018.3
20260901112313 70 341 0.0 0.0 0.00 0.00 0.00 98 1018.4
20260901111816 70 341 0.0 0.0 0.00 0.00 0.00 98 1018.3
20260901111315 70 341 0.0 0.0 0.00 0.00 0.00 98 1018.2
20260901110813 70 341 0.0 0.0 0.00 0.00 0.00 98 1018.2
20260901110340 70 341 0.0 0.0 0.00 0.00 0.00 98 1018.2
20260901105846 70 341 0.0 0.0 0.00 0.00 0.00 98 1018.0
20260901105323 70 341 0.0 0.0 0.00 0.00 0.00 98 1018.1
20260901104852 70 341 0.0 0.0 0.00 0.00 0.00 98 1018.3
20260901104331 70 341 0.0 0.0 0.00 0.00 0.00 98 1018.3
20260901103833 70 341 0.0 0.0 0.00 0.00 0.00 98 1018.2
20260901103336 70 341 0.0 0.0 0.00 0.00 0.00 98 1018.2
20260901102837 70 341 0.0 0.0 0.00 0.00 0.00 98 1018.1
20260901102317 71 341 0.0 0.0 0.00 0.00 0.00 98 1018.2
20260901101815 71 341 0.0 0.0 0.00 0.00 0.00 98 1018.1
20260901101314 71 341 0.0 0.0 0.00 0.00 0.00 98 1018.2
20260901100815 71 341 0.0 0.0 0.00 0.00 0.00 99 1018.1
20260901100316 71 341 0.0 0.0 0.00 0.00 0.00 98 1018.1
20260901095817 71 341 0.0 0.0 0.00 0.00 0.00 98 1018.1
20260901095322 71 341 0.0 0.0 0.00 0.00 0.00 98 1018.1
20260901094822 70 341 0.0 0.0 0.00 0.00 0.00 98 1018.1
20260901094324 70 341 0.0 0.0 0.00 0.00 0.00 98 1018.0
20260901093851 71 341 0.0 0.0 0.00 0.00 0.00 98 1018.0
20260901093333 71 341 0.0 0.0 0.00 0.00 0.00 98 1018.1
20260901092836 71 341 0.0 0.0 0.00 0.00 0.00 98 1018.0
20260901092333 70 341 0.0 0.0 0.00 0.00 0.00 98 1018.1
20260901091836 70 341 0.0 0.0 0.00 0.00 0.00 98 1018.2
20260901091337 70 341 0.0 0.0 0.00 0.00 0.00 98 1018.2
20260901090836 70 341 0.0 0.0 0.00 0.00 0.00 98 1018.1
20260901090338 70 341 0.0 0.0 0.00 0.00 0.00 98 1018.1
20260901085818 70 341 0.0 0.0 0.00 0.00 0.00 98 1018.0
20260901085325 71 341 0.0 0.0 0.00 0.00 0.00 98 1018.0
20260901084825 71 341 0.0 0.0 0.00 0.00 0.00 98 1017.9
20260901084325 71 341 0.0 0.0 0.00 0.00 0.00 98 1018.1
20260901083826 71 341 0.0 0.0 0.00 0.00 0.00 98 1018.2
20260901083326 70 341 0.0 0.0 0.00 0.00 0.00 98 1018.2
20260901082828 70 341 0.0 0.0 0.00 0.00 0.00 98 1018.3
20260901082326 71 341 0.0 0.0 0.00 0.00 0.00 98 1018.3
20260901081852 71 341 0.0 0.0 0.00 0.00 0.00 98 1018.3
20260901081333 71 341 0.0 0.0 0.00 0.00 0.00 98 1018.4
20260901080834 70 341 0.0 0.0 0.00 0.00 0.00 98 1018.3
20260901080313 70 341 0.0 0.0 0.00 0.00 0.00 97 1018.4
20260901075814 70 341 0.0 0.0 0.00 0.00 0.00 97 1018.3
20260901075314 70 341 0.0 0.0 0.00 0.00 0.00 97 1018.3
20260901074815 70 341 0.0 0.0 0.00 0.00 0.00 97 1018.2
20260901074316 70 341 0.0 0.0 0.00 0.00 0.00 97 1018.2
20260901073817 71 341 0.0 0.0 0.00 0.00 0.00 97 1018.2
20260901073318 71 341 0.0 0.0 0.00 0.00 0.00 97 1018.2
20260901072842 71 341 0.0 0.0 0.00 0.00 0.00 97 1018.2
20260901072322 71 341 0.0 0.0 0.00 0.00 0.00 97 1018.2
20260901071850 71 341 0.0 0.0 0.00 0.00 0.00 97 1018.1
20260901071330 72 341 0.0 0.0 0.00 0.00 0.00 97 1018.2
20260901070832 72 341 0.0 0.0 0.00 0.00 0.00 97 1018.3
20260901070331 71 341 0.0 0.0 0.00 0.00 0.00 97 1018.3
20260901065813 71 341 0.0 0.0 0.00 0.00 0.00 97 1018.4
20260901065313 71 341 0.0 0.0 0.00 0.00 0.00 97 1018.4
20260901064814 71 341 0.0 0.0 0.00 0.00 0.00 97 1018.5
20260901064314 71 341 0.0 0.0 0.00 0.00 0.00 97 1018.5
20260901063816 71 341 0.0 0.0 0.00 0.00 0.00 97 1018.5
20260901063317 72 341 0.0 0.0 0.00 0.00 0.00 96 1018.6
20260901062817 72 341 0.0 0.0 0.00 0.00 0.00 97 1018.5
20260901062314 72 341 0.0 0.0 0.00 0.00 0.00 97 1018.6
20260901061841 72 341 0.0 0.0 0.00 0.00 0.00 97 1018.8
20260901061321 72 341 0.0 0.0 0.00 0.00 0.00 97 1018.8
20260901060829 72 341 0.0 0.0 0.00 0.00 0.00 96 1018.9
20260901060329 72 341 0.0 0.0 0.00 0.00 0.00 96 1019.0
20260901055830 72 341 0.0 0.0 0.00 0.00 0.00 96 1018.9
20260901055332 72 341 0.0 0.0 0.00 0.00 0.00 96 1018.9
20260901054834 72 341 0.0 0.0 0.00 0.00 0.00 96 1019.0
20260901054333 72 341 0.0 0.0 0.00 0.00 0.00 96 1019.1
20260901053813 72 341 0.0 0.0 0.00 0.00 0.00 96 1019.1
20260901053314 72 341 0.0 0.0 0.00 0.00 0.00 96 1019.0
20260901052858 72 341 0.0 0.0 0.00 0.00 0.00 96 1019.0
20260901052337 72 341 0.0 0.0 0.00 0.00 0.00 96 1019.0
20260901051816 72 341 0.0 0.0 0.00 0.00 0.00 95 1018.9
20260901051317 72 341 0.0 0.0 0.00 0.00 0.00 95 1019.0
20260901050817 73 341 0.0 0.0 0.00 0.00 0.00 95 1019.1
20260901050318 73 341 0.0 0.0 0.00 0.00 0.00 95 1018.9
20260901045819 73 341 0.0 0.0 0.00 0.00 0.00 95 1019.0
20260901045320 73 341 0.0 0.0 0.00 0.00 0.00 95 1019.1
20260901044821 73 341 0.0 0.0 0.00 0.00 0.00 95 1019.0
20260901044322 73 341 0.0 0.0 0.00 0.00 0.00 95 1019.0
20260901043821 73 341 0.0 0.0 0.00 0.00 0.00 94 1019.0
20260901043319 73 341 0.0 0.0 0.00 0.00 0.00 94 1019.0
20260901042846 73 341 0.0 0.0 0.00 0.00 0.00 94 1019.0
20260901042326 74 341 0.0 0.0 0.00 0.00 0.00 93 1019.0
20260901041827 74 341 0.0 0.0 0.00 0.00 0.00 93 1019.0
20260901041328 74 341 0.0 0.0 0.00 0.00 0.00 93 1019.0
20260901040829 74 341 0.0 0.0 0.00 0.00 0.00 93 1019.0
20260901040356 74 341 0.0 0.0 0.00 0.00 0.00 93 1019.0
20260901035815 74 341 0.0 0.0 0.00 0.00 0.00 93 1018.9
20260901035314 74 341 0.0 0.0 0.00 0.00 0.00 94 1019.0
20260901034842 74 341 0.0 0.0 0.00 0.00 0.00 94 1018.9
20260901034318 74 341 0.0 0.0 0.00 0.00 0.00 94 1019.0
20260901033820 74 341 0.0 0.0 0.00 0.00 0.00 95 1019.0
20260901033320 74 341 0.0 0.0 0.00 0.00 0.00 95 1019.1
20260901032823 74 341 0.0 0.0 0.00 0.00 0.00 95 1019.0
20260901032324 74 341 0.0 0.0 0.00 0.00 0.00 94 1018.9
20260901031853 74 341 0.0 0.0 0.00 0.00 0.00 94 1018.9
20260901031333 74 341 0.0 0.0 0.00 0.00 0.00 94 1019.0
20260901030812 74 341 0.0 0.0 0.00 0.00 0.00 93 1018.9
20260901030338 74 341 0.0 0.0 0.00 0.00 0.00 93 1018.9
20260901025817 75 341 0.0 0.0 0.00 0.00 0.00 92 1019.0
20260901025317 75 341 0.0 0.0 0.00 0.00 0.00 92 1018.9
20260901024814 75 341 0.0 0.0 0.00 0.00 0.00 92 1019.0
20260901024342 75 341 0.0 0.0 0.00 0.00 0.00 92 1019.0
20260901023821 76 341 0.0 0.0 0.00 0.00 0.00 92 1019.0
20260901023348 76 341 0.0 0.0 0.00 0.00 0.00 92 1018.9
20260901022830 76 341 0.0 0.0 0.00 0.00 0.00 91 1019.1
20260901022329 76 341 0.0 1.0 0.00 0.00 0.00 91 1019.1
20260901021831 76 341 0.0 1.0 0.00 0.00 0.00 91 1019.1
20260901021331 76 341 0.0 1.0 0.00 0.00 0.00 90 1019.0
20260901020833 76 341 0.0 1.0 0.00 0.00 0.00 90 1019.0
20260901020334 77 341 0.0 1.0 0.00 0.00 0.00 89 1019.1
20260901015835 77 341 0.0 1.0 0.00 0.00 0.00 88 1019.0
20260901015329 78 341 0.0 1.0 0.00 0.00 0.00 87 1019.2
20260901014830 78 341 0.0 1.0 0.00 0.00 0.00 87 1019.2
20260901014330 78 341 0.0 1.0 0.00 0.00 0.00 86 1019.3
20260901013830 78 341 0.0 1.0 0.00 0.00 0.00 85 1019.2
20260901013331 78 341 0.0 0.0 0.00 0.00 0.00 85 1019.1
20260901012833 79 341 0.0 0.0 0.00 0.00 0.00 85 1019.1
20260901012332 79 341 0.0 0.0 0.00 0.00 0.00 86 1019.0
20260901011832 79 341 0.0 0.0 0.00 0.00 0.00 84 1018.8
20260901011332 79 341 0.0 0.0 0.00 0.00 0.00 83 1018.8
20260901010831 79 341 0.0 0.0 0.00 0.00 0.00 83 1018.8
20260901010313 79 341 0.0 0.0 0.00 0.00 0.00 82 1018.7
20260901005813 79 341 0.0 0.0 0.00 0.00 0.00 81 1018.6
20260901005341 79 341 0.0 0.0 0.00 0.00 0.00 81 1018.5
20260901004817 79 341 0.0 0.0 0.00 0.00 0.00 81 1018.5
20260901004318 79 341 0.0 0.0 0.00 0.00 0.00 80 1018.4
20260901003817 79 341 0.0 0.0 0.00 0.00 0.00 80 1018.3
20260901003358 80 341 0.0 0.0 0.00 0.00 0.00 80 1018.2
20260901002837 80 341 0.0 0.0 0.00 0.00 0.00 80 1018.3
20260901002318 80 341 0.0 0.0 0.00 0.00 0.00 79 1018.4
20260901001820 80 341 0.0 0.0 0.00 0.00 0.00 79 1018.3
20260901001321 81 341 0.0 0.0 0.00 0.00 0.00 78 1018.4
20260901000848 81 341 0.0 0.0 0.00 0.00 0.00 79 1018.3
20260901000329 82 341 0.0 0.0 0.00 0.00 0.00 79 1018.2
20260831235826 82 341 0.0 0.0 0.00 0.00 0.00 77 1018.0
20260831235332 82 341 0.0 0.0 0.00 0.00 0.00 77 1018.0
20260831234831 83 341 0.0 0.0 0.00 0.00 0.00 77 1018.0
20260831234332 83 341 0.0 0.0 0.00 0.00 0.00 76 1018.0
20260831233829 83 341 0.0 0.0 0.00 0.00 0.00 76 1018.0
20260831233330 84 341 0.0 0.0 0.00 0.00 0.00 76 1017.9
20260831232812 84 341 0.0 0.0 0.00 0.00 0.00 78 1017.9
20260831232312 84 341 0.0 0.0 0.00 0.00 0.00 77 1017.9
20260831231813 85 341 0.0 0.0 0.00 0.00 0.00 75 1018.0
20260831231314 86 341 0.0 0.0 0.00 0.00 0.00 75 1017.9
20260831230841 87 341 0.0 0.0 0.00 0.00 0.00 73 1018.0
20260831230320 87 341 0.0 0.0 0.00 0.00 0.00 73 1017.9
20260831225839 88 341 0.0 0.0 0.00 0.00 0.00 72 1017.9
20260831225347 88 341 0.0 0.0 0.00 0.00 0.00 73 1017.9
20260831224852 88 341 0.0 0.0 0.00 0.00 0.00 72 1017.8
20260831224333 88 341 0.0 0.0 0.00 0.00 0.00 71 1017.8
20260831223812 89 341 0.0 0.0 0.00 0.00 0.00 71 1017.7
20260831223313 89 341 0.0 0.0 0.00 0.00 0.00 69 1017.7
20260831222814 90 341 0.0 0.0 0.00 0.00 0.00 67 1017.9
20260831222315 91 341 0.0 0.0 0.00 0.00 0.00 68 1017.8
20260831221816 92 341 0.0 0.0 0.00 0.00 0.00 64 1017.6
20260831221316 93 341 0.0 0.0 0.00 0.00 0.00 60 1017.6
20260831220838 94 341 0.0 0.0 0.00 0.00 0.00 62 1017.8
20260831220317 96 341 0.0 0.0 0.00 0.00 0.00 57 1017.7
20260831215843 97 341 0.0 0.0 0.00 0.00 0.00 56 1017.8
20260831215322 99 341 0.0 0.0 0.00 0.00 0.00 52 1017.7
20260831214824 100 341 0.0 0.0 0.00 0.00 0.00 50 1017.7
20260831214350 101 341 0.0 0.0 0.00 0.00 0.00 50 1017.7
20260831213828 102 341 0.0 0.0 0.00 0.00 0.00 49 1017.7
20260831213328 101 341 0.0 0.0 0.00 0.00 0.00 50 1017.7
20260831212829 100 341 0.0 0.0 0.00 0.00 0.00 52 1017.8
20260831212330 99 341 0.0 0.0 0.00 0.00 0.00 55 1017.7
20260831211826 98 341 0.0 0.0 0.00 0.00 0.00 53 1017.6
20260831211327 98 341 0.0 0.0 0.00 0.00 0.00 56 1017.5
20260831210853 99 341 0.0 0.0 0.00 0.00 0.00 53 1017.5
20260831210358 99 341 0.0 0.0 0.00 0.00 0.00 51 1017.5
20260831205816 99 341 0.0 0.0 0.00 0.00 0.00 55 1017.6
20260831205315 100 341 0.0 1.0 0.00 0.00 0.00 50 1017.7
20260831204815 100 341 0.0 1.0 0.00 0.00 0.00 50 1017.7
20260831204315 101 341 0.0 1.0 0.00 0.00 0.00 48 1017.7
20260831203814 101 341 0.0 1.0 0.00 0.00 0.00 48 1017.6
20260831203341 102 341 0.0 2.0 0.00 0.00 0.00 48 1017.6
20260831202816 101 341 0.0 2.0 0.00 0.00 0.00 47 1017.7
20260831202318 101 341 1.0 2.0 0.00 0.00 0.00 46 1017.8
20260831201845 100 341 1.0 3.0 0.00 0.00 0.00 48 1017.8
20260831201323 101 341 1.0 3.0 0.00 0.00 0.00 45 1017.8
20260831200825 101 341 0.0 2.0 0.00 0.00 0.00 48 1017.8
20260831200324 101 341 1.0 3.0 0.00 0.00 0.00 46 1017.6
20260831195823 101 341 2.0 3.0 0.00 0.00 0.00 49 1017.8
20260831195323 100 341 0.0 2.0 0.00 0.00 0.00 51 1017.7
20260831194822 99 341 0.0 4.0 0.00 0.00 0.00 49 1017.8
20260831194321 99 341 0.0 4.0 0.00 0.00 0.00 49 1017.7
20260831193821 98 341 0.0 2.0 0.00 0.00 0.00 52 1017.9
20260831193320 97 341 1.0 2.0 0.00 0.00 0.00 53 1017.9
20260831192816 96 341 1.0 3.0 0.00 0.00 0.00 50 1018.1
20260831192317 97 341 1.0 3.0 0.00 0.00 0.00 51 1018.1
20260831191819 97 341 1.0 3.0 0.00 0.00 0.00 51 1018.1
20260831191345 98 341 1.0 3.0 0.00 0.00 0.00 49 1018.2
20260831190852 99 341 1.0 2.0 0.00 0.00 0.00 52 1018.3
20260831190331 98 341 1.0 3.0 0.00 0.00 0.00 53 1018.3
20260831185812 99 341 1.0 3.0 0.00 0.00 0.00 48 1018.5
20260831185312 99 341 0.0 3.0 0.00 0.00 0.00 54 1018.5
20260831184838 98 341 1.0 3.0 0.00 0.00 0.00 51 1018.4
20260831184338 97 341 1.0 5.0 0.00 0.00 0.00 51 1018.5
20260831183813 97 341 0.0 5.0 0.00 0.00 0.00 52 1018.6
20260831183316 98 341 1.0 4.0 0.00 0.00 0.00 52 1018.6
20260831182816 98 341 2.0 4.0 0.00 0.00 0.00 52 1018.7
20260831182342 98 341 0.0 3.0 0.00 0.00 0.00 55 1018.7
20260831181821 98 341 1.0 4.0 0.00 0.00 0.00 54 1018.9
20260831181347 96 341 2.0 3.0 0.00 0.00 0.00 55 1018.8
20260831180853 96 341 1.0 2.0 0.00 0.00 0.00 55 1018.8
20260831180334 96 341 0.0 1.0 0.00 0.00 0.00 55 1018.9
20260831175834 95 341 0.0 1.0 0.00 0.00 0.00 56 1019.0
20260831175331 96 341 0.0 1.0 0.00 0.00 0.00 54 1019.0
20260831174831 95 341 0.0 3.0 0.00 0.00 0.00 59 1019.0
20260831174356 93 341 1.0 4.0 0.00 0.00 0.00 60 1019.1
20260831173835 93 341 1.0 6.0 0.00 0.00 0.00 59 1019.2
20260831173335 93 341 3.0 6.0 0.00 0.00 0.00 56 1019.2
20260831172835 93 341 1.0 4.0 0.00 0.00 0.00 60 1019.2
20260831172337 94 341 1.0 4.0 0.00 0.00 0.00 58 1019.2
20260831171836 94 341 1.0 4.0 0.00 0.00 0.00 60 1019.1
20260831171317 92 341 1.0 4.0 0.00 0.00 0.00 61 1019.1
20260831170817 91 341 1.0 4.0 0.00 0.00 0.00 60 1019.1
20260831170317 93 341 2.0 3.0 0.00 0.00 0.00 57 1019.3
20260831165818 94 341 0.0 3.0 0.00 0.00 0.00 57 1019.3
20260831165322 93 341 1.0 3.0 0.00 0.00 0.00 63 1019.3
20260831164823 92 341 1.0 3.0 0.00 0.00 0.00 66 1019.3
20260831164323 92 341 1.0 3.0 0.00 0.00 0.00 62 1019.4
20260831163823 90 341 0.0 4.0 0.00 0.00 0.00 67 1019.3
20260831163324 89 341 1.0 5.0 0.00 0.00 0.00 66 1019.4
20260831162823 89 341 2.0 5.0 0.00 0.00 0.00 66 1019.4
20260831162323 89 341 1.0 3.0 0.00 0.00 0.00 69 1019.6
20260831161851 89 341 1.0 4.0 0.00 0.00 0.00 70 1019.7
20260831161330 89 341 2.0 5.0 0.00 0.00 0.00 68 1019.7
20260831160811 88 341 2.0 5.0 0.00 0.00 0.00 68 1019.8
20260831160337 89 341 2.0 5.0 0.00 0.00 0.00 68 1019.8
20260831155832 89 341 2.0 4.0 0.00 0.00 0.00 68 1019.7
20260831155330 89 341 1.0 4.0 0.00 0.00 0.00 68 1019.7
20260831154830 89 341 0.0 3.0 0.00 0.00 0.00 71 1019.7
20260831154331 87 341 1.0 3.0 0.00 0.00 0.00 72 1019.9
20260831153831 87 341 1.0 6.0 0.00 0.00 0.00 72 1019.8
20260831153329 86 341 2.0 6.0 0.00 0.00 0.00 73 1019.9
20260831152828 86 341 1.0 5.0 0.00 0.00 0.00 72 1019.9
20260831152326 86 341 2.0 3.0 0.00 0.00 0.00 74 1019.8
20260831151826 85 341 1.0 4.0 0.00 0.00 0.00 74 1019.8
20260831151326 85 341 2.0 4.0 0.00 0.00 0.00 75 1019.8
20260831150853 85 341 1.0 5.0 0.00 0.00 0.00 76 1019.8
20260831150333 84 341 1.0 5.0 0.00 0.00 0.00 76 1019.9
20260831145829 84 341 0.0 3.0 0.00 0.00 0.00 78 1019.8
20260831145330 83 341 1.0 3.0 0.00 0.00 0.00 79 1019.8
20260831144830 82 341 1.0 4.0 0.00 0.00 0.00 80 1019.8
20260831144331 82 341 1.0 4.0 0.00 0.00 0.00 81 1019.9